Weather History for PHJR - January, 2013

Change the Weather History Date:

Tuesday, January 15, 2013

  Actual Average (PHNL) Record (PHNL)
Temperature  
Mean Temperature 70 °F 73 °F  
Max Temperature 79 °F 80 °F 87 °F (1998)
Min Temperature 62 °F 66 °F 56 °F (1892)
Degree Days  
Heating Degree Days 0 0  
Month to date heating degree days 0  
Since 1 July heating degree days 0  
Cooling Degree Days 6 8  
Month to date cooling degree days 122  
Year to date cooling degree days 122  
Growing Degree Days 20 (Base 50)    
Moisture  
Dew Point 60 °F    
Average Humidity 69    
Maximum Humidity 87    
Minimum Humidity 48    
Precipitation  
Precipitation 0.00 in 0.08 in 1.97 in (1907)
Month to date precipitation 1.30  
Year to date precipitation 1.30  
Snow  
Snow 0.00 in - - ()
Month to date snowfall  
Since 1 July snowfall  
Snow Depth -    
Sea Level Pressure  
Sea Level Pressure 29.95 in    
Wind  
Wind Speed 4 mph (NW)    
Max Wind Speed 14 mph    
Max Gust Speed -    
Visibility 10 miles    
Events Rain    
T = Trace of Precipitation, MM = Missing Value Source: NWS Daily Summary

Daily Weather History Graph

Daily Weather History Graph

Search for Another Location

Airport or City:

Trip Planner

Search our weather history database for the weather conditions in past years. The results will help you decide how hot, cold, wet, or windy it might be!

Date:

Astronomy

Jan. 15, 2013 Rise Set
Actual Time 7:12 AM HST 6:11 PM HST
Civil Twilight 6:48 AM HST 6:35 PM HST
Nautical Twilight 6:21 AM HST 7:02 PM HST
Astronomical Twilight 5:54 AM HST 7:29 PM HST
Moon 10:03 AM HST (1/15) 10:29 PM HST (1/15)
Length of Visible Light 11h 46m
Length of Day
10h 59m
Waxing Crescent, 21% of the Moon is Illuminated
Jan 15
Waxing Crescent
Jan 18
First Quarter
Jan 26
Full
Feb 3
Last Quarter
Feb 9
New

Hourly Weather History & Observations

Time (HST) Temp. Dew Point Humidity Pressure Visibility Wind Dir Wind Speed Gust Speed Precip Events Conditions
12:53 AM 68.0 °F 63.0 °F 84% 29.94 in - ENE 4.6 mph - 0.00 in Rain Light Rain
1:53 AM 66.9 °F 63.0 °F 87% 29.95 in - Calm Calm - 0.00 in Rain Light Rain
2:53 AM 68.0 °F 63.0 °F 84% 29.94 in - Variable 3.5 mph - 0.00 in Rain Light Rain
3:53 AM 66.9 °F 62.1 °F 84% 29.92 in - Variable 3.5 mph - 0.00 in Rain Light Rain
4:53 AM 66.9 °F 62.1 °F 84% 29.94 in - Variable 3.5 mph - 0.00 in Rain Light Rain
5:53 AM 66.9 °F 63.0 °F 87% 29.95 in - Variable 3.5 mph - 0.00 in Rain Light Rain
6:53 AM 66.9 °F 63.0 °F 87% 29.95 in 10.0 mi Calm Calm - 0.00 in Rain Light Rain
7:53 AM 68.0 °F 63.0 °F 84% 29.96 in 10.0 mi ENE 3.5 mph - 0.00 in   Clear
8:53 AM 73.0 °F 63.0 °F 71% 29.98 in - Calm Calm - N/A   Clear
8:57 AM 73.4 °F 62.6 °F 69% 29.96 in 6.2 mi Calm Calm - N/A   Clear
9:53 AM 75.0 °F 63.0 °F 66% 29.99 in 10.0 mi Calm Calm - N/A   Clear
10:53 AM 77.0 °F 62.1 °F 60% 29.97 in 10.0 mi SSW 6.9 mph - N/A   Clear
11:53 AM 79.0 °F 57.9 °F 48% 29.94 in - West 6.9 mph - N/A   Clear
12:53 PM 79.0 °F 57.9 °F 48% 29.91 in - West 9.2 mph - N/A   Clear
1:53 PM 79.0 °F 57.9 °F 48% 29.90 in - WSW 8.1 mph - N/A   Clear
2:53 PM 79.0 °F 59.0 °F 50% 29.90 in 10.0 mi SW 8.1 mph - N/A   Clear
3:53 PM 77.0 °F 59.0 °F 54% 29.91 in 10.0 mi WNW 13.8 mph - N/A   Clear
4:53 PM 75.0 °F 57.9 °F 55% 29.92 in - WNW 12.7 mph - N/A   Clear
5:00 PM 75.2 °F 57.2 °F 53% 29.90 in - WNW 13.8 mph - N/A   Partly Cloudy
5:53 PM 73.0 °F 57.9 °F 59% 29.95 in - WNW 12.7 mph - N/A   Clear
6:53 PM 70.0 °F 57.9 °F 65% 29.97 in - ENE 4.6 mph - N/A   Clear
7:53 PM 66.9 °F 57.0 °F 70% 29.98 in - ENE 3.5 mph - N/A   Clear
8:53 PM 66.9 °F 57.0 °F 70% 29.98 in - ENE 3.5 mph - N/A   Scattered Clouds
9:53 PM 64.9 °F 57.0 °F 75% 29.98 in - Calm Calm - N/A   Clear
10:53 PM 62.1 °F 57.0 °F 84% 29.98 in - Calm Calm - N/A   Clear
11:53 PM 62.1 °F 55.9 °F 80% 29.97 in - ENE 3.5 mph - N/A   Clear